カタログに戻る

FENGYUN 1C DEB

運用中SSO
NORAD 30560·DEBRIS·🇨🇳 China

打ち上げ May 10, 1999 から Taiyuan Satellite Launch Center

Loading…

次のパス (今後24時間)

TLE

最新Source: Space-Track

元期: Sep 14, 2026, 11:35 UTC

1 30560U 99025ALA 26257.48266770  .00000254  00000-0  13729-3 0  9997
2 30560  98.6820 249.5787 0115778 139.8840  11.4376 14.17329489 12758

AllMySatでFENGYUN 1C DEBをリアルタイム追跡

Download on the App Store